StationID,Date,MaxTemp,MinTemp,Precipitation,Snowfall,SnowDepth
"USC00046119","1977-10-09",96.08,64.94,0.00,0.00,0.00
"USC00046119","1977-10-10",96.08,60.08,0.00,0.00,0.00
"USC00046119","1977-10-11",89.96,62.96,0.00,0.00,0.00
"USC00046119","1977-10-12",93.02,62.06,0.00,0.00,0.00
"USC00046119","1977-10-13",98.06,53.96,0.00,0.00,0.00
"USC00046119","1977-10-14",100.94,57.92,0.00,0.00,0.00
"USC00046119","1977-10-15",100.94,60.08,0.00,0.00,0.00
"USC00046119","1977-10-16",96.98,60.98,0.00,0.00,0.00
"USC00046119","1977-10-17",98.06,60.08,0.00,0.00,0.00
"USC00046119","1977-10-18",98.06,53.96,0.00,0.00,0.00
"USC00046119","1977-10-19",95.00,64.04,0.00,0.00,0.00
"USC00046119","1977-10-20",86.00,62.06,0.00,0.00,0.00
"USC00046119","1977-10-21",87.08,57.92,0.00,0.00,0.00
"USC00046119","1977-10-22",86.00,57.02,0.00,0.00,0.00
"USC00046119","1977-10-23",91.94,57.92,0.00,0.00,0.00
"USC00046119","1977-10-24",98.06,57.92,0.00,0.00,0.00
"USC00046119","1977-10-25",93.92,57.02,0.00,0.00,0.00
"USC00046119","1977-10-26",93.92,53.06,0.00,0.00,0.00
"USC00046119","1977-10-27",89.06,60.08,0.00,0.00,0.00
"USC00046119","1977-10-28",89.06,60.98,0.00,0.00,0.00
"USC00046119","1977-10-29",93.02,57.02,0.00,0.00,0.00
"USC00046119","1977-10-30",82.94,53.06,0.00,0.00,0.00
"USC00046119","1977-10-31",82.94,48.02,0.00,0.00,0.00
"USC00046119","1977-11-01",80.06,48.92,0.00,0.00,0.00
"USC00046119","1977-11-02",84.92,48.02,0.00,0.00,0.00
"USC00046119","1977-11-03",,,,0.00,0.00
"USC00046119","1977-11-04",87.98,51.08,0.00,0.00,0.00
"USC00046119","1977-11-05",,,,0.00,0.00
"USC00046119","1977-11-06",,,,0.00,0.00
"USC00046119","1977-11-07",84.02,46.04,0.00,0.00,0.00
"USC00046119","1977-11-08",71.06,42.98,0.00,0.00,0.00
"USC00046119","1977-11-09",69.08,48.92,0.00,0.00,0.00
"USC00046119","1977-11-10",75.92,44.96,0.00,0.00,0.00
"USC00046119","1977-11-11",,,,0.00,0.00
"USC00046119","1977-11-12",82.94,46.04,0.00,0.00,0.00
"USC00046119","1977-11-13",77.00,41.00,0.00,0.00,0.00
"USC00046119","1977-11-14",80.96,48.02,0.00,0.00,0.00
"USC00046119","1977-11-15",,,,0.00,0.00
"USC00046119","1977-11-16",,,,0.00,0.00
"USC00046119","1977-11-17",,,,0.00,0.00
"USC00046119","1977-11-18",,,,0.00,0.00
"USC00046119","1977-11-19",,,,0.00,0.00
"USC00046119","1977-11-20",,,,0.00,0.00
"USC00046119","1977-11-21",,,,0.00,0.00
"USC00046119","1977-11-22",,,,0.00,0.00
"USC00046119","1977-11-23",,,,0.00,0.00
"USC00046119","1977-11-24",,,,0.00,0.00
"USC00046119","1977-11-25",,,,0.00,0.00
"USC00046119","1977-11-26",,,,0.00,0.00
"USC00046119","1977-11-27",84.02,57.02,0.00,0.00,0.00
"USC00046119","1977-11-28",,,,0.00,0.00
"USC00046119","1977-11-29",,,,0.00,0.00
"USC00046119","1977-11-30",,,,0.00,0.00
"USC00046119","1978-07-01",104.00,71.96,0.00,0.00,0.00
"USC00046119","1978-07-02",107.06,75.02,0.00,0.00,0.00
"USC00046119","1978-07-03",104.00,75.92,0.00,0.00,0.00
"USC00046119","1978-07-04",104.00,71.96,0.00,0.00,0.00
"USC00046119","1978-07-05",105.98,69.98,0.00,0.00,0.00
"USC00046119","1978-07-06",107.96,71.96,0.00,0.00,0.00
"USC00046119","1978-07-07",109.04,73.94,0.00,0.00,0.00
"USC00046119","1978-07-08",111.02,80.96,0.00,0.00,0.00
"USC00046119","1978-07-09",113.00,82.94,0.00,0.00,0.00
"USC00046119","1978-07-10",113.00,82.94,0.00,0.00,0.00
"USC00046119","1978-07-11",109.94,82.04,0.00,0.00,0.00
"USC00046119","1978-07-12",111.02,78.98,0.00,0.00,0.00
"USC00046119","1978-07-13",113.00,82.04,0.00,0.00,0.00
"USC00046119","1978-07-14",114.98,82.04,0.00,0.00,0.00
"USC00046119","1978-07-15",116.06,87.08,0.00,0.00,0.00
"USC00046119","1978-07-16",113.00,87.08,0.00,0.00,0.00
"USC00046119","1978-07-17",111.92,87.08,0.00,0.00,0.00
"USC00046119","1978-07-18",114.08,87.08,0.00,0.00,0.00
"USC00046119","1978-07-19",114.98,86.00,0.00,0.00,0.00
"USC00046119","1978-07-20",116.06,86.00,0.00,0.00,0.00
"USC00046119","1978-07-21",109.04,89.06,0.00,0.00,0.00
"USC00046119","1978-07-22",111.92,87.08,0.00,0.00,0.00
"USC00046119","1978-07-23",111.92,82.94,0.00,0.00,0.00
"USC00046119","1978-07-24",109.04,80.06,0.00,0.00,0.00
"USC00046119","1978-07-25",107.96,87.08,0.00,0.00,0.00
"USC00046119","1978-07-26",100.94,84.92,8.00,0.00,0.00
"USC00046119","1978-07-27",111.02,84.92,0.00,0.00,0.00
"USC00046119","1978-07-28",114.08,89.96,0.00,0.00,0.00
"USC00046119","1978-07-29",114.98,89.06,0.00,0.00,0.00
"USC00046119","1978-07-30",118.04,84.02,0.00,0.00,0.00
"USC00046119","1978-07-31",114.08,84.02,0.00,0.00,0.00
"USC00046119","1978-08-01",111.92,89.06,0.00,0.00,0.00
"USC00046119","1978-08-02",107.06,84.02,0.00,0.00,0.00
"USC00046119","1978-08-03",111.02,87.08,0.00,0.00,0.00
"USC00046119","1978-08-04",109.04,84.92,0.00,0.00,0.00
"USC00046119","1978-08-05",111.92,84.92,0.00,0.00,0.00
"USC00046119","1978-08-06",111.92,89.06,0.00,0.00,0.00
"USC00046119","1978-08-07",114.98,84.02,0.00,0.00,0.00
"USC00046119","1978-08-08",114.08,91.04,0.00,0.00,0.00
"USC00046119","1978-08-09",111.02,91.04,0.00,0.00,0.00
"USC00046119","1978-08-10",111.92,89.06,0.00,0.00,0.00
"USC00046119","1978-08-11",107.06,87.08,0.00,0.00,0.00
"USC00046119","1978-08-12",105.08,80.06,0.00,0.00,0.00
"USC00046119","1978-08-13",105.08,78.08,0.00,0.00,0.00
"USC00046119","1978-08-14",100.94,78.98,0.00,0.00,0.00
"USC00046119","1978-08-15",105.98,75.92,0.00,0.00,0.00
"USC00046119","1978-08-16",107.06,80.06,0.00,0.00,0.00
"USC00046119","1978-08-17",105.08,77.00,0.00,0.00,0.00
"USC00046119","1978-08-18",102.92,77.00,0.00,0.00,0.00
"USC00046119","1978-08-19",105.08,75.92,0.00,0.00,0.00
"USC00046119","1978-08-20",107.06,80.06,0.00,0.00,0.00
"USC00046119","1978-08-21",107.06,84.02,0.00,0.00,0.00
"USC00046119","1978-08-22",105.08,78.98,0.00,0.00,0.00
"USC00046119","1978-08-23",102.02,75.92,0.00,0.00,0.00
"USC00046119","1978-08-24",105.08,75.92,0.00,0.00,0.00
"USC00046119","1978-08-25",102.92,69.08,0.00,0.00,0.00
"USC00046119","1978-08-26",102.02,69.08,0.00,0.00,0.00
"USC00046119","1978-08-27",105.08,75.92,0.00,0.00,0.00
"USC00046119","1978-08-28",109.94,75.02,0.00,0.00,0.00
"USC00046119","1978-08-29",109.94,73.94,0.00,0.00,0.00
"USC00046119","1978-08-30",107.96,78.08,0.00,0.00,0.00
"USC00046119","1978-08-31",109.04,78.08,0.00,0.00,0.00
"USC00046119","1978-09-01",109.94,80.96,0.00,0.00,0.00
"USC00046119","1978-09-02",109.94,82.04,0.00,0.00,0.00
"USC00046119","1978-09-03",109.04,84.92,0.00,0.00,0.00
"USC00046119","1978-09-04",102.02,84.92,0.00,0.00,0.00
"USC00046119","1978-09-05",100.04,84.02,0.00,0.00,0.00
"USC00046119","1978-09-06",98.96,80.06,0.00,0.00,0.00
"USC00046119","1978-09-07",96.98,75.92,0.00,0.00,0.00
"USC00046119","1978-09-08",98.06,69.98,0.00,0.00,0.00
"USC00046119","1978-09-09",100.94,78.98,0.00,0.00,0.00
"USC00046119","1978-09-10",98.96,73.94,0.00,0.00,0.00
"USC00046119","1978-09-11",95.00,69.98,0.00,0.00,0.00
"USC00046119","1978-09-12",93.92,66.02,0.00,0.00,0.00
"USC00046119","1978-09-13",96.08,62.96,0.00,0.00,0.00
"USC00046119","1978-09-14",93.02,73.94,0.00,0.00,0.00
"USC00046119","1978-09-15",89.96,69.08,0.00,0.00,0.00
"USC00046119","1978-09-16",93.02,73.04,0.00,0.00,0.00
"USC00046119","1978-09-17",93.92,69.98,0.00,0.00,0.00
"USC00046119","1978-09-18",80.96,64.94,0.00,0.00,0.00
"USC00046119","1978-09-19",80.06,62.96,0.00,0.00,0.00
"USC00046119","1978-09-20",82.94,62.06,0.00,0.00,0.00
"USC00046119","1978-09-21",89.06,64.94,0.00,0.00,0.00
"USC00046119","1978-09-22",98.06,62.96,0.00,0.00,0.00
"USC00046119","1978-09-23",100.94,69.08,0.00,0.00,0.00
"USC00046119","1978-09-24",102.02,71.96,0.00,0.00,0.00
"USC00046119","1978-09-25",100.04,80.06,0.00,0.00,0.00
"USC00046119","1978-09-26",104.00,73.94,0.00,0.00,0.00
"USC00046119","1978-09-27",105.98,75.02,0.00,0.00,0.00
"USC00046119","1978-09-28",107.06,78.98,0.00,0.00,0.00
"USC00046119","1978-09-29",107.06,77.00,0.00,0.00,0.00
"USC00046119","1978-09-30",107.96,71.96,0.00,0.00,0.00
"USC00046119","1978-10-01",107.06,75.92,0.00,0.00,0.00
"USC00046119","1978-10-02",107.06,75.92,0.00,0.00,0.00
"USC00046119","1978-10-03",100.94,78.08,0.00,0.00,0.00
"USC00046119","1978-10-04",104.00,69.08,0.00,0.00,0.00
"USC00046119","1978-10-05",102.02,69.08,0.00,0.00,0.00
"USC00046119","1978-10-06",102.92,71.96,0.00,0.00,0.00
"USC00046119","1978-10-07",102.02,71.06,0.00,0.00,0.00
"USC00046119","1978-10-08",102.02,69.08,0.00,0.00,0.00
"USC00046119","1978-10-09",96.08,73.94,0.00,0.00,0.00
"USC00046119","1978-10-10",98.96,64.04,0.00,0.00,0.00
"USC00046119","1978-10-11",98.96,64.94,0.00,0.00,0.00
"USC00046119","1978-10-12",100.94,68.00,0.00,0.00,0.00
"USC00046119","1978-10-13",98.06,78.08,0.00,0.00,0.00
"USC00046119","1978-10-14",98.06,73.94,0.00,0.00,0.00
"USC00046119","1978-10-15",98.06,64.04,0.00,0.00,0.00
"USC00046119","1978-10-16",96.98,64.04,0.00,0.00,0.00
"USC00046119","1978-10-17",91.94,64.04,0.00,0.00,0.00
"USC00046119","1978-10-18",95.00,66.02,0.00,0.00,0.00
"USC00046119","1978-10-19",93.02,68.00,0.00,0.00,0.00
"USC00046119","1978-10-20",71.96,62.06,122.00,0.00,0.00
"USC00046119","1978-10-21",75.92,60.08,76.00,0.00,0.00
"USC00046119","1978-10-22",82.04,57.02,0.00,0.00,0.00
"USC00046119","1978-10-23",82.94,64.94,0.00,0.00,0.00
"USC00046119","1978-10-24",78.08,60.98,84.00,0.00,0.00
"USC00046119","1978-10-25",77.00,64.94,0.00,0.00,0.00
"USC00046119","1978-10-26",84.02,55.94,0.00,0.00,0.00
"USC00046119","1978-10-27",82.94,55.04,0.00,0.00,0.00
"USC00046119","1978-10-28",84.02,53.06,0.00,0.00,0.00
"USC00046119","1978-10-29",80.96,55.94,0.00,0.00,0.00
"USC00046119","1978-10-30",78.98,60.98,0.00,0.00,0.00
"USC00046119","1978-10-31",71.96,64.04,0.00,0.00,0.00
"USC00046119","1978-11-01",77.00,59.00,0.00,0.00,0.00
"USC00046119","1978-11-02",73.04,55.94,0.00,0.00,0.00
"USC00046119","1978-11-03",80.06,51.98,0.00,0.00,0.00
"USC00046119","1978-11-04",84.92,64.94,0.00,0.00,0.00
"USC00046119","1978-11-05",84.92,59.00,0.00,0.00,0.00
"USC00046119","1978-11-06",78.98,53.06,0.00,0.00,0.00
"USC00046119","1978-11-07",82.94,60.98,0.00,0.00,0.00
"USC00046119","1978-11-08",82.04,60.08,0.00,0.00,0.00
"USC00046119","1978-11-09",82.04,55.04,0.00,0.00,0.00
"USC00046119","1978-11-10",82.04,62.96,0.00,0.00,0.00
"USC00046119","1978-11-11",64.94,53.06,5.00,0.00,0.00
"USC00046119","1978-11-12",62.06,42.08,0.00,0.00,0.00
"USC00046119","1978-11-13",62.06,42.98,0.00,0.00,0.00
"USC00046119","1978-11-14",62.06,46.04,18.00,0.00,0.00
"USC00046119","1978-11-15",59.00,39.02,0.00,0.00,0.00
"USC00046119","1978-11-16",62.96,41.00,0.00,0.00,0.00
"USC00046119","1978-11-17",68.00,41.00,0.00,0.00,0.00
"USC00046119","1978-11-18",69.08,48.02,0.00,0.00,0.00
"USC00046119","1978-11-19",69.08,42.98,0.00,0.00,0.00
"USC00046119","1978-11-20",73.94,46.94,0.00,0.00,0.00
"USC00046119","1978-11-21",73.94,48.92,0.00,0.00,0.00
"USC00046119","1978-11-22",68.00,51.08,0.00,0.00,0.00
"USC00046119","1978-11-23",64.04,42.98,5.00,0.00,0.00
"USC00046119","1978-11-24",64.04,51.98,56.00,0.00,0.00
"USC00046119","1978-11-25",59.00,46.04,15.00,0.00,0.00
"USC00046119","1978-11-26",57.92,41.00,0.00,0.00,0.00
"USC00046119","1978-11-27",57.92,42.08,0.00,0.00,0.00
"USC00046119","1978-11-28",57.92,39.92,0.00,0.00,0.00
"USC00046119","1978-11-29",60.08,37.94,0.00,0.00,0.00
"USC00046119","1978-11-30",64.94,42.08,0.00,0.00,0.00
"USC00046119","1979-01-01",42.08,30.02,0.00,0.00,0.00
"USC00046119","1979-01-02",44.96,28.04,0.00,0.00,0.00
"USC00046119","1979-01-03",53.06,35.96,0.00,0.00,0.00
"USC00046119","1979-01-04",57.02,30.02,0.00,0.00,0.00
"USC00046119","1979-01-05",51.98,39.92,0.00,0.00,0.00
"USC00046119","1979-01-06",50.00,44.06,0.00,0.00,0.00
"USC00046119","1979-01-07",55.94,42.08,0.00,0.00,0.00
"USC00046119","1979-01-08",60.08,37.04,0.00,0.00,0.00
"USC00046119","1979-01-09",50.00,39.02,0.00,0.00,0.00
"USC00046119","1979-01-10",60.08,37.04,0.00,0.00,0.00
"USC00046119","1979-01-11",55.94,37.94,0.00,0.00,0.00
"USC00046119","1979-01-12",66.02,44.96,0.00,0.00,0.00
"USC00046119","1979-01-13",59.00,44.96,0.00,0.00,0.00
"USC00046119","1979-01-14",53.06,44.96,0.00,0.00,0.00
"USC00046119","1979-01-15",55.04,42.08,0.00,0.00,0.00
"USC00046119","1979-01-16",55.04,44.96,36.00,0.00,0.00
"USC00046119","1979-01-17",53.06,42.08,46.00,0.00,0.00
"USC00046119","1979-01-18",53.06,42.08,0.00,0.00,0.00
"USC00046119","1979-01-19",55.04,37.94,0.00,0.00,0.00
"USC00046119","1979-01-20",55.94,37.04,0.00,0.00,0.00
"USC00046119","1979-01-21",55.04,42.98,0.00,0.00,0.00
"USC00046119","1979-01-22",59.00,37.94,0.00,0.00,0.00
"USC00046119","1979-01-23",55.04,37.94,0.00,0.00,0.00
"USC00046119","1979-01-24",55.04,37.04,0.00,0.00,0.00
"USC00046119","1979-01-25",50.00,42.08,28.00,0.00,0.00
"USC00046119","1979-01-26",51.98,37.94,0.00,0.00,0.00
"USC00046119","1979-01-27",53.06,33.98,0.00,0.00,0.00
"USC00046119","1979-01-28",42.98,32.00,38.00,0.00,0.00
"USC00046119","1979-01-29",46.04,28.04,0.00,0.00,0.00
"USC00046119","1979-01-30",44.06,26.06,0.00,0.00,0.00
"USC00046119","1979-01-31",41.00,33.08,18.00,0.00,0.00
"USC00046119","1979-02-01",51.08,33.08,0.00,0.00,0.00
"USC00046119","1979-02-02",55.04,37.04,0.00,0.00,0.00
"USC00046119","1979-02-03",51.98,39.02,0.00,0.00,0.00
"USC00046119","1979-02-04",53.06,37.04,0.00,0.00,0.00
"USC00046119","1979-02-05",55.04,32.00,0.00,0.00,0.00
"USC00046119","1979-02-06",64.94,35.06,0.00,0.00,0.00
"USC00046119","1979-02-07",66.02,39.02,0.00,0.00,0.00
"USC00046119","1979-02-08",68.00,42.08,0.00,0.00,0.00
"USC00046119","1979-02-09",68.00,39.92,0.00,0.00,0.00
"USC00046119","1979-02-10",68.00,42.98,0.00,0.00,0.00
"USC00046119","1979-02-11",71.96,44.96,0.00,0.00,0.00
"USC00046119","1979-02-12",69.98,44.96,0.00,0.00,0.00
"USC00046119","1979-02-13",75.02,42.98,0.00,0.00,0.00
"USC00046119","1979-02-14",71.06,50.00,0.00,0.00,0.00
"USC00046119","1979-02-15",71.06,41.00,0.00,0.00,0.00
"USC00046119","1979-02-16",64.04,42.08,0.00,0.00,0.00
"USC00046119","1979-02-17",71.06,41.00,0.00,0.00,0.00
"USC00046119","1979-02-18",71.06,42.98,0.00,0.00,0.00
"USC00046119","1979-02-19",64.04,44.96,0.00,0.00,0.00
"USC00046119","1979-02-20",62.96,42.08,0.00,0.00,0.00
"USC00046119","1979-02-21",64.04,53.06,38.00,0.00,0.00
"USC00046119","1979-02-22",64.04,44.96,0.00,0.00,0.00
"USC00046119","1979-02-23",64.94,44.96,0.00,0.00,0.00
"USC00046119","1979-02-24",64.94,39.92,0.00,0.00,0.00
"USC00046119","1979-02-25",69.98,44.06,0.00,0.00,0.00
"USC00046119","1979-02-26",69.98,50.00,0.00,0.00,0.00
"USC00046119","1979-02-27",69.98,48.02,0.00,0.00,0.00
"USC00046119","1979-02-28",69.98,42.98,0.00,0.00,0.00
"USC00046119","1979-03-01",62.06,51.08,0.00,0.00,0.00
"USC00046119","1979-03-02",60.98,42.98,64.00,0.00,0.00
"USC00046119","1979-03-03",66.92,48.02,0.00,0.00,0.00
"USC00046119","1979-03-04",69.98,42.98,0.00,0.00,0.00
"USC00046119","1979-03-05",71.96,55.04,0.00,0.00,0.00
"USC00046119","1979-03-06",77.00,53.06,0.00,0.00,0.00
"USC00046119","1979-03-07",82.94,60.08,0.00,0.00,0.00
"USC00046119","1979-03-08",84.92,51.98,0.00,0.00,0.00
"USC00046119","1979-03-09",78.98,57.02,0.00,0.00,0.00
"USC00046119","1979-03-10",80.96,55.94,0.00,0.00,0.00
"USC00046119","1979-03-11",80.06,51.08,0.00,0.00,0.00
"USC00046119","1979-03-12",82.94,48.92,0.00,0.00,0.00
"USC00046119","1979-03-13",75.92,51.98,0.00,0.00,0.00
"USC00046119","1979-03-14",75.02,50.00,0.00,0.00,0.00
"USC00046119","1979-03-15",75.92,50.00,0.00,0.00,0.00
"USC00046119","1979-03-16",69.08,53.96,0.00,0.00,0.00
"USC00046119","1979-03-17",64.04,44.96,0.00,0.00,0.00
"USC00046119","1979-03-18",64.04,41.00,0.00,0.00,0.00
"USC00046119","1979-03-19",57.02,44.96,28.00,0.00,0.00
"USC00046119","1979-03-20",62.06,42.98,112.00,0.00,0.00
"USC00046119","1979-03-21",57.02,42.98,173.00,0.00,0.00
"USC00046119","1979-03-22",66.92,42.08,94.00,0.00,0.00
"USC00046119","1979-03-23",73.04,46.94,0.00,0.00,0.00
"USC00046119","1979-03-24",75.92,51.08,0.00,0.00,0.00
"USC00046119","1979-03-25",80.06,50.00,0.00,0.00,0.00
"USC00046119","1979-03-26",80.06,46.94,0.00,0.00,0.00
"USC00046119","1979-03-27",73.04,57.02,13.00,0.00,0.00
"USC00046119","1979-03-28",60.98,48.92,15.00,0.00,0.00
"USC00046119","1979-03-29",69.08,51.08,0.00,0.00,0.00
"USC00046119","1979-03-30",71.06,46.94,0.00,0.00,0.00
"USC00046119","1979-03-31",71.96,51.08,0.00,0.00,0.00
"USC00046119","1979-04-01",69.98,44.96,0.00,0.00,0.00
"USC00046119","1979-04-02",69.98,44.96,0.00,0.00,0.00
"USC00046119","1979-04-03",69.98,53.06,0.00,0.00,0.00
"USC00046119","1979-04-04",78.98,44.06,0.00,0.00,0.00
"USC00046119","1979-04-05",84.92,50.00,0.00,0.00,0.00
"USC00046119","1979-04-06",87.08,53.06,0.00,0.00,0.00
"USC00046119","1979-04-07",75.02,60.08,0.00,0.00,0.00
"USC00046119","1979-04-08",84.02,57.92,0.00,0.00,0.00
"USC00046119","1979-04-09",84.02,53.96,0.00,0.00,0.00
"USC00046119","1979-04-10",69.08,55.04,0.00,0.00,0.00
"USC00046119","1979-04-11",77.00,46.04,0.00,0.00,0.00
"USC00046119","1979-04-12",69.08,53.96,0.00,0.00,0.00
"USC00046119","1979-04-13",86.00,51.08,0.00,0.00,0.00
"USC00046119","1979-04-14",89.96,55.94,0.00,0.00,0.00
"USC00046119","1979-04-15",91.04,59.00,0.00,0.00,0.00
"USC00046119","1979-04-16",91.04,60.98,0.00,0.00,0.00
"USC00046119","1979-04-17",80.06,64.94,0.00,0.00,0.00
"USC00046119","1979-04-18",75.02,51.08,0.00,0.00,0.00
"USC00046119","1979-04-19",80.96,50.00,0.00,0.00,0.00
"USC00046119","1979-04-20",87.98,53.96,0.00,0.00,0.00
"USC00046119","1979-04-21",91.04,53.96,0.00,0.00,0.00
"USC00046119","1979-04-22",91.94,57.92,0.00,0.00,0.00
"USC00046119","1979-04-23",96.08,64.04,0.00,0.00,0.00
"USC00046119","1979-04-24",87.98,62.06,0.00,0.00,0.00
"USC00046119","1979-04-25",89.96,62.06,0.00,0.00,0.00
"USC00046119","1979-04-26",91.04,64.94,0.00,0.00,0.00
"USC00046119","1979-04-27",91.94,66.02,0.00,0.00,0.00
"USC00046119","1979-04-28",93.02,68.00,0.00,0.00,0.00
"USC00046119","1979-04-29",96.08,62.96,0.00,0.00,0.00
"USC00046119","1979-04-30",91.94,66.92,0.00,0.00,0.00
"USC00046119","1979-05-01",87.08,66.02,0.00,0.00,0.00
"USC00046119","1979-05-02",82.94,53.06,0.00,0.00,0.00
"USC00046119","1979-05-03",87.98,59.00,0.00,0.00,0.00
"USC00046119","1979-05-04",96.08,60.98,0.00,0.00,0.00
"USC00046119","1979-05-05",98.96,68.00,0.00,0.00,0.00
"USC00046119","1979-05-06",89.96,68.00,0.00,0.00,0.00
"USC00046119","1979-05-07",86.00,62.96,0.00,0.00,0.00
"USC00046119","1979-05-08",73.04,55.94,0.00,0.00,0.00
"USC00046119","1979-05-09",78.08,53.06,0.00,0.00,0.00
"USC00046119","1979-05-10",82.04,55.94,0.00,0.00,0.00
"USC00046119","1979-05-11",93.92,62.06,0.00,0.00,0.00
"USC00046119","1979-05-12",87.98,55.04,0.00,0.00,0.00
"USC00046119","1979-05-13",98.96,62.96,0.00,0.00,0.00
"USC00046119","1979-05-14",104.00,64.04,0.00,0.00,0.00
"USC00046119","1979-05-15",96.98,71.96,0.00,0.00,0.00
"USC00046119","1979-05-16",96.08,69.08,0.00,0.00,0.00
"USC00046119","1979-05-17",96.08,69.98,0.00,0.00,0.00
"USC00046119","1979-05-18",96.08,69.98,0.00,0.00,0.00
"USC00046119","1979-05-19",89.96,68.00,0.00,0.00,0.00
"USC00046119","1979-05-20",84.92,60.98,0.00,0.00,0.00
"USC00046119","1979-05-21",95.00,62.96,0.00,0.00,0.00
"USC00046119","1979-05-22",102.92,71.06,0.00,0.00,0.00
"USC00046119","1979-05-23",102.92,75.02,0.00,0.00,0.00
"USC00046119","1979-05-24",98.06,78.08,0.00,0.00,0.00
"USC00046119","1979-05-25",96.98,75.02,0.00,0.00,0.00
"USC00046119","1979-05-26",100.04,75.02,0.00,0.00,0.00
"USC00046119","1979-05-27",96.08,75.02,0.00,0.00,0.00
"USC00046119","1979-05-28",96.98,75.92,0.00,0.00,0.00
"USC00046119","1979-05-29",96.08,75.02,0.00,0.00,0.00
"USC00046119","1979-05-30",98.96,69.98,0.00,0.00,0.00
"USC00046119","1979-05-31",98.06,73.04,0.00,0.00,0.00
"USC00046119","1979-06-01",100.04,75.02,0.00,0.00,0.00
"USC00046119","1979-06-02",91.04,73.94,0.00,0.00,0.00
"USC00046119","1979-06-03",,,0.00,0.00,0.00
"USC00046119","1979-06-04",107.06,75.02,0.00,0.00,0.00
"USC00046119","1979-06-05",107.96,73.94,0.00,0.00,0.00
"USC00046119","1979-06-06",105.08,80.96,0.00,0.00,0.00
"USC00046119","1979-06-07",98.06,75.92,0.00,0.00,0.00
"USC00046119","1979-06-08",89.96,69.08,0.00,0.00,0.00
"USC00046119","1979-06-09",98.06,62.06,0.00,0.00,0.00
"USC00046119","1979-06-10",105.08,71.96,0.00,0.00,0.00
"USC00046119","1979-06-11",109.94,71.96,0.00,0.00,0.00
"USC00046119","1979-06-12",114.08,80.96,0.00,0.00,0.00
"USC00046119","1979-06-13",113.00,82.04,0.00,0.00,0.00
"USC00046119","1979-06-14",111.92,87.08,0.00,0.00,0.00
"USC00046119","1979-06-15",105.98,75.02,0.00,0.00,0.00
"USC00046119","1979-06-16",100.04,75.92,0.00,0.00,0.00
"USC00046119","1979-06-17",95.00,71.96,0.00,0.00,0.00
"USC00046119","1979-06-18",89.06,62.96,0.00,0.00,0.00
"USC00046119","1979-06-19",95.00,62.06,0.00,0.00,0.00
"USC00046119","1979-06-20",100.04,66.92,0.00,0.00,0.00
"USC00046119","1979-06-21",100.04,73.94,0.00,0.00,0.00
"USC00046119","1979-06-22",105.08,73.94,0.00,0.00,0.00
"USC00046119","1979-06-23",105.98,73.94,0.00,0.00,0.00
"USC00046119","1979-06-24",107.06,75.02,0.00,0.00,0.00
"USC00046119","1979-06-25",111.02,78.98,0.00,0.00,0.00
"USC00046119","1979-06-26",114.98,78.08,0.00,0.00,0.00
"USC00046119","1979-06-27",116.96,78.08,0.00,0.00,0.00
"USC00046119","1979-06-28",118.94,82.04,0.00,0.00,0.00
"USC00046119","1979-06-29",116.06,84.92,0.00,0.00,0.00
"USC00046119","1979-06-30",111.92,91.04,0.00,0.00,0.00
"USC00046119","1979-07-01",107.06,84.92,0.00,0.00,0.00
"USC00046119","1979-07-02",102.92,78.08,0.00,0.00,0.00
"USC00046119","1979-07-03",100.04,71.96,0.00,0.00,0.00
"USC00046119","1979-07-04",102.92,75.02,0.00,0.00,0.00
"USC00046119","1979-07-05",100.94,75.02,0.00,0.00,0.00
"USC00046119","1979-07-06",104.00,73.94,0.00,0.00,0.00
"USC00046119","1979-07-07",107.96,73.04,0.00,0.00,0.00
"USC00046119","1979-07-08",111.02,80.06,0.00,0.00,0.00
"USC00046119","1979-07-09",114.98,75.92,0.00,0.00,0.00
"USC00046119","1979-07-10",114.98,80.96,0.00,0.00,0.00
"USC00046119","1979-07-11",114.98,80.96,0.00,0.00,0.00
"USC00046119","1979-07-12",111.92,84.02,0.00,0.00,0.00
"USC00046119","1979-07-13",109.04,82.94,0.00,0.00,0.00
"USC00046119","1979-07-14",109.04,84.02,0.00,0.00,0.00
"USC00046119","1979-07-15",114.98,82.94,0.00,0.00,0.00
"USC00046119","1979-07-16",114.98,87.98,0.00,0.00,0.00
"USC00046119","1979-07-17",114.08,89.96,0.00,0.00,0.00
"USC00046119","1979-07-18",114.08,87.98,0.00,0.00,0.00
"USC00046119","1979-07-19",105.98,77.00,0.00,0.00,0.00
"USC00046119","1979-07-20",89.06,71.96,188.00,0.00,0.00
"USC00046119","1979-07-21",98.06,75.02,0.00,0.00,0.00
"USC00046119","1979-07-22",105.08,80.06,0.00,0.00,0.00
"USC00046119","1979-07-23",109.04,82.04,0.00,0.00,0.00
"USC00046119","1979-07-24",111.92,82.94,0.00,0.00,0.00
"USC00046119","1979-07-25",116.96,86.00,0.00,0.00,0.00
"USC00046119","1979-07-26",111.02,87.98,0.00,0.00,0.00
"USC00046119","1979-07-27",111.92,87.98,0.00,0.00,0.00
"USC00046119","1979-07-28",113.00,84.92,0.00,0.00,0.00
"USC00046119","1979-07-29",109.94,87.98,0.00,0.00,0.00
"USC00046119","1979-07-30",105.08,87.08,0.00,0.00,0.00
"USC00046119","1979-07-31",109.94,87.98,0.00,0.00,0.00
"USC00046119","1979-08-01",114.98,87.08,0.00,0.00,0.00
"USC00046119","1979-08-02",114.08,84.92,0.00,0.00,0.00
"USC00046119","1979-08-03",109.04,84.02,0.00,0.00,0.00
"USC00046119","1979-08-04",109.94,87.98,0.00,0.00,0.00
"USC00046119","1979-08-05",104.00,89.06,0.00,0.00,0.00
"USC00046119","1979-08-06",105.08,89.06,0.00,0.00,0.00
"USC00046119","1979-08-07",105.98,84.92,0.00,0.00,0.00
"USC00046119","1979-08-08",107.96,87.08,0.00,0.00,0.00
"USC00046119","1979-08-09",109.94,84.02,0.00,0.00,0.00
"USC00046119","1979-08-10",111.02,82.94,0.00,0.00,0.00
"USC00046119","1979-08-11",98.96,89.96,0.00,0.00,0.00
"USC00046119","1979-08-12",87.98,69.98,244.00,0.00,0.00
"USC00046119","1979-08-13",93.92,73.94,0.00,0.00,0.00
"USC00046119","1979-08-14",96.98,73.94,0.00,0.00,0.00
"USC00046119","1979-08-15",98.96,75.02,0.00,0.00,0.00
"USC00046119","1979-08-16",96.98,82.94,0.00,0.00,0.00
"USC00046119","1979-08-17",96.98,69.98,0.00,0.00,0.00
"USC00046119","1979-08-18",96.08,75.02,0.00,0.00,0.00